Location: Palomar Mountain Lodge
(33.3110°N, 116.8495°W)
Time: 20:41:42
(UTC-08:00)

COSMOS 2455 - Pass Details

Date: 19 May 2017
Orbit: 900 x 910 km, 67.1° (Epoch: 20 November)

Event Time Altitude Azimuth Distance (km) Brightness Sun altitude
Rises 20:36:25 0° 347° (NNW) 3,521 6.7 -10.5°
Reaches altitude 10° 20:39:28 10° 2° (N) 2,579 5.7 -11.0°
Maximum altitude 20:44:10 23° 54° (NE) 1,798 4.2 -11.8°
Enters shadow 20:47:55 14° 99° (E) 2,329 4.4 -12.5°
